{"data":{"norad_id":69940,"intl_designator":"2026-156BZ","name":"LEMUR-2-ELEONORE","alt_names":[],"object_type":"PAYLOAD","status":"ACTIVE","operator":null,"country":"GER","launch_date":"2026-07-07","launch_site_code":"AFWTR","launch_vehicle":null,"mission":null,"orbit_class":"UNKNOWN","rcs_meters":null,"size_class":null,"mass_kg":null,"dimensions":null,"purposes":[],"wikipedia_slug":null,"has_3d_model":false,"image_url":null,"decayed_at":null,"tle_current":{"epoch":"2026-09-19T22:52:54.725088Z","epoch_age_seconds":65013,"freshness":"FRESH","line1":"1 69940U 26156BZ  26262.95341117  .00000747  00000+0  77785-4 0  9992","line2":"2 69940  97.7471 162.2756 0008722 269.6614  90.3606 14.92721063 11132","mean_motion":14.92721063,"eccentricity":0.0008722,"inclination_deg":97.7471,"raan_deg":162.2756,"arg_perigee_deg":269.6614,"mean_anomaly_deg":90.3606,"bstar":7.7785e-5,"rev_number":1113,"period_min":96.46812359611,"perigee_km":583.37822167739,"apogee_km":595.53248978273,"semimajor_km":6967.5923557301,"source":"CELESTRAK","updated_at":"2026-09-20T09:00:25.209694Z"}}}